STARLINK-11134, 59956

Orbit data source: Space-Track

STARLINK-11134, 59956 is a payload satellite owned by SpaceX/Seattle (US) in LEO that was launched on Wed, 05 Jun 2024 UTC via an FALCON 9 launch vehicle from the Air Force Eastern Test Range (AFETR). Payload-class satellites include a variety of spacecraft equipped with specific instruments for various scientific and technological missions. These include communications satellites like Starlink; space stations such as the ISS; scientific satellites like the Hubble; Earth observation satellites from companies like Planet Labs, Umbra, and HawkEye 360; GPS; miniature CubeSats for education and research; and military/defense satellites.

Loading next visibility...
Identifier
59956, 2024-107M
Orbit
LEO
Last TLE update
9 hours ago
Origin
Manufacturer
SpaceX/Seattle
Mission
Operational spacecraft
Bus & Motor
STARLINK V2M, Unknown motor
Mass
730 kg wet, ~700 kg dry
Launch date (UTC)
2024-06-05 (1 year ago)
Launch vehicle
FALCON 9
Launch site
Air Force Eastern Test Range (AFETR)
Object type
Payload
Rocket body
Debris
Shape & HBR
Unknown
Radar Cross Section
Large (>1 m²)

Expand to show TLE details & history

TLE from 9 hours ago
0 STARLINK-11134
1 59956U 24107M   25182.03165979 -.00001278  00000-0 -56923-5 0  9996
2 59956  53.1593  51.5935 0000888 109.2858 250.8256 15.69706003 62303
Epoch: 2025-07-01T00:45Z
TLE epoch observation values (Epoch: 2025-07-01T00:45:35.405Z)
Latitude
-0.00004°
Longitude
120.863°
Altitude
360.85 km
Speed
7.694 km/s
True Right ascension
03h 26m 22s
True Declination
0° 00' 00"
Sunlit
Object was in daylight at epoch
Visualization orbit readout
Latitude
50.9254°
Longitude
-174.51524°
Altitude
365.264 km
Speed
7.697 km/s
Apparent Right ascension
08h 53m 41s
Apparent Declination
7° 23' 11"
Sunlit
Object is in daylight
Visualization observer readout
Local Sidereal Time
21:53:18
Azimuth
19.669° NNE
Elevation
-40.734°
Doppler factor
1
Orbital elements
Apogee altitude
360.597 km
Perigee altitude
359.401 km
Semi-major axis
6,738.136 km
Eccentricity
0.00009
Inclination
53.1593°
RAAN
51.5935°
Arg. of periapsis
109.2858°
True anomaly
Unknown
Mean anomaly
250.8256°
Eccentric anomaly
Unknown
Mean motion
3.92404 °/min
Orbital period
91.74 mins
BSTAR
-0.0000056923
Loading maneuver chart data...
Loading SW <> Apogee altitude chart data...
Loading historical data...
Loading historical data...
Loading historical data...
Loading historical data...
Loading historical data...
Loading historical data...
Loading historical data...

STARLINK-11134 Visibility forecast

Observer location: undefined°, undefined°

Span
Click to sort rows by Start time (UTC) header in descending order
Start Az.
Max El. time (UTC)
Max El. Az.
Max El.
End time (UTC)
End Az.
4 mins2025-07-01 17:44:52.944Z207.402° SW2025-07-01 17:46:52.944Z137.42° SSE37.23°2025-07-01 17:48:52.944Z65.178° ENE
4 mins2025-07-02 00:09:52.944Z338.594° N2025-07-02 00:11:52.944Z49.835° ENE27.75°2025-07-02 00:13:52.944Z97.411° ESE
|